When you browse on this site, cookies collect data to enhance your experience and personalize the content and advertising you see.
Visit our Privacy Policy to learn more. By continuing to use the site, you agree to this use of cookies and data.
  • în România
  • Lista ţărilor
  • Pe 7 zile
  • Temperatura apei
  • Meteo pe hartă
  • Widget-uri
  • user-avatar
    Intrare

    Meteo pe oră la Śrem

    Astăzi, 7 Decembrie, Sâmbătă

    Timp Temperatura Precipitaţii Vânt Presiune Umiditate
    00:00 +1°C° 0 mm 5 m/s 748 mmHg 54%
    01:00 +1°C° 0 mm 5 m/s 747 mmHg 55%
    02:00 +2°C° 0.3 mm 5 m/s 747 mmHg 61%
    03:00 +2°C° 0.3 mm 6 m/s 746 mmHg 67%
    04:00 +2°C° 0.3 mm 6 m/s 745 mmHg 73%
    05:00 +3°C° 0.6 mm 6 m/s 745 mmHg 79%
    06:00 +3°C° 0.6 mm 7 m/s 745 mmHg 84%
    07:00 +3°C° 0 mm 7 m/s 745 mmHg 87%
    08:00 +4°C° 0 mm 7 m/s 745 mmHg 84%
    09:00 +4°C° 0 mm 8 m/s 745 mmHg 82%
    10:00 +5°C° 0 mm 8 m/s 745 mmHg 80%
    11:00 +5°C° 0.1 mm 8 m/s 746 mmHg 80%
    12:00 +6°C° 0.1 mm 9 m/s 746 mmHg 81%
    13:00 +6°C° 0 mm 8 m/s 746 mmHg 81%
    14:00 +6°C° 0 mm 8 m/s 747 mmHg 81%
    15:00 +6°C° 0 mm 8 m/s 747 mmHg 81%
    16:00 +6°C° 0 mm 7 m/s 747 mmHg 81%
    17:00 +6°C° 0.3 mm 7 m/s 748 mmHg 82%
    18:00 +6°C° 0.3 mm 7 m/s 749 mmHg 83%
    19:00 +6°C° 0.3 mm 7 m/s 749 mmHg 84%
    20:00 +6°C° 0.1 mm 7 m/s 749 mmHg 83%
    21:00 +6°C° 0.1 mm 7 m/s 749 mmHg 82%
    22:00 +6°C° 0.1 mm 7 m/s 750 mmHg 81%
    23:00 +5°C° 0 mm 7 m/s 750 mmHg 82%

    Mâine, 8 Decembrie, Duminică

    Timp Temperatura Precipitaţii Vânt Presiune Umiditate
    00:00 +5°C° 0 mm 7 m/s 750 mmHg 82%
    01:00 +5°C° 0 mm 6 m/s 750 mmHg 83%
    02:00 +5°C° 0 mm 6 m/s 750 mmHg 83%
    03:00 +5°C° 0 mm 6 m/s 750 mmHg 82%
    04:00 +5°C° 0 mm 6 m/s 749 mmHg 82%
    05:00 +4°C° 0 mm 6 m/s 749 mmHg 83%
    06:00 +4°C° 0 mm 6 m/s 749 mmHg 83%
    07:00 +4°C° 0 mm 6 m/s 749 mmHg 84%
    08:00 +4°C° 0 mm 6 m/s 749 mmHg 81%
    09:00 +4°C° 0 mm 7 m/s 748 mmHg 78%
    10:00 +4°C° 0 mm 7 m/s 748 mmHg 75%
    11:00 +5°C° 0 mm 7 m/s 747 mmHg 73%
    12:00 +5°C° 0 mm 7 m/s 746 mmHg 70%
    13:00 +6°C° 0 mm 7 m/s 746 mmHg 68%
    14:00 +6°C° 0 mm 7 m/s 745 mmHg 69%
    15:00 +6°C° 0 mm 7 m/s 745 mmHg 70%
    16:00 +6°C° 0 mm 7 m/s 744 mmHg 71%
    17:00 +6°C° 0.3 mm 7 m/s 744 mmHg 75%
    18:00 +6°C° 0.3 mm 7 m/s 743 mmHg 78%
    19:00 +6°C° 0.3 mm 8 m/s 743 mmHg 82%
    20:00 +8°C° 0.1 mm 7 m/s 743 mmHg 82%
    21:00 +8°C° 0.1 mm 7 m/s 743 mmHg 81%
    22:00 +8°C° 0.1 mm 6 m/s 743 mmHg 81%
    23:00 +8°C° 0.1 mm 6 m/s 742 mmHg 83%

    Poimâine, 9 Decembrie, Luni

    Timp Temperatura Precipitaţii Vânt Presiune Umiditate
    00:00 +8°C° 0.1 mm 5 m/s 742 mmHg 85%
    01:00 +8°C° 0.1 mm 5 m/s 742 mmHg 87%
    02:00 +7°C° 0.7 mm 5 m/s 742 mmHg 85%
    03:00 +7°C° 0.7 mm 6 m/s 741 mmHg 84%
    04:00 +6°C° 0.7 mm 7 m/s 741 mmHg 82%
    05:00 +5°C° 0.1 mm 6 m/s 741 mmHg 81%
    06:00 +6°C° 0.1 mm 5 m/s 741 mmHg 80%
    07:00 +5°C° 0.1 mm 5 m/s 742 mmHg 80%
    08:00 +6°C° 0 mm 5 m/s 742 mmHg 76%
    09:00 +5°C° 0 mm 6 m/s 742 mmHg 73%
    10:00 +5°C° 0 mm 6 m/s 742 mmHg 70%
    11:00 +7°C° 0 mm 6 m/s 742 mmHg 67%
    12:00 +7°C° 0 mm 6 m/s 742 mmHg 64%
    13:00 +8°C° 0 mm 6 m/s 742 mmHg 61%
    14:00 +7°C° 0 mm 6 m/s 741 mmHg 62%
    15:00 +7°C° 0 mm 6 m/s 741 mmHg 64%
    16:00 +5°C° 0 mm 6 m/s 741 mmHg 66%
    17:00 +5°C° 0 mm 7 m/s 741 mmHg 68%
    18:00 +5°C° 0 mm 7 m/s 741 mmHg 71%
    19:00 +5°C° 0 mm 8 m/s 742 mmHg 73%
    20:00 +5°C° 0.1 mm 7 m/s 742 mmHg 75%
    21:00 +4°C° 0.1 mm 7 m/s 743 mmHg 77%
    22:00 +4°C° 0.1 mm 7 m/s 743 mmHg 79%
    23:00 +4°C° 0.1 mm 7 m/s 744 mmHg 78%

    10 Decembrie, Marţi

    Timp Temperatura Precipitaţii Vânt Presiune Umiditate
    00:00 +4°C° 0.1 mm 7 m/s 745 mmHg 77%
    01:00 +4°C° 0.1 mm 8 m/s 746 mmHg 76%
    02:00 +2°C° 0 mm 8 m/s 746 mmHg 77%
    03:00 +1°C° 0 mm 8 m/s 747 mmHg 79%
    04:00 +1°C° 0 mm 9 m/s 747 mmHg 81%
    05:00 +1°C° 0.3 mm 8 m/s 748 mmHg 83%
    06:00 +1°C° 0.3 mm 8 m/s 749 mmHg 86%
    07:00 +2°C° 0.3 mm 8 m/s 750 mmHg 88%
    08:00 +2°C° 0.2 mm 8 m/s 751 mmHg 86%
    09:00 +2°C° 0.2 mm 8 m/s 752 mmHg 84%
    10:00 +2°C° 0.2 mm 8 m/s 753 mmHg 81%
    11:00 +2°C° 0 mm 8 m/s 754 mmHg 81%
    12:00 +3°C° 0 mm 7 m/s 755 mmHg 81%
    13:00 +2°C° 0 mm 7 m/s 756 mmHg 81%
    14:00 +2°C° 0.1 mm 7 m/s 757 mmHg 78%
    15:00 +2°C° 0.1 mm 6 m/s 758 mmHg 75%
    16:00 +2°C° 0.1 mm 6 m/s 759 mmHg 72%
    17:00 +1°C° 0 mm 5 m/s 759 mmHg 73%
    18:00 +1°C° 0 mm 3 m/s 759 mmHg 75%
    19:00 +1°C° 0 mm 2 m/s 760 mmHg 76%
    20:00 +1°C° 0 mm 2 m/s 760 mmHg 78%
    21:00 -1°C° 0 mm 2 m/s 760 mmHg 80%
    22:00 -1°C° 0 mm 2 m/s 760 mmHg 81%
    23:00 -1°C° 0 mm 2 m/s 760 mmHg 83%

    11 Decembrie, Miercuri

    Timp Temperatura Precipitaţii Vânt Presiune Umiditate
    00:00 -1°C° 0 mm 2 m/s 760 mmHg 84%
    01:00 -1°C° 0 mm 2 m/s 760 mmHg 85%
    02:00 -1°C° 0 mm 3 m/s 759 mmHg 84%
    03:00 -1°C° 0 mm 3 m/s 758 mmHg 84%
    04:00 -2°C° 0 mm 4 m/s 758 mmHg 83%
    05:00 -2°C° 0 mm 4 m/s 757 mmHg 80%
    06:00 -2°C° 0 mm 5 m/s 757 mmHg 77%
    07:00 -3°C° 0 mm 6 m/s 756 mmHg 74%
    08:00 -2°C° 0 mm 6 m/s 756 mmHg 72%
    09:00 -2°C° 0 mm 6 m/s 756 mmHg 70%
    10:00 0°C° 0 mm 5 m/s 756 mmHg 68%
    11:00 0°C° 0 mm 5 m/s 755 mmHg 66%
    12:00 +1°C° 0 mm 5 m/s 755 mmHg 63%
    13:00 +1°C° 0 mm 4 m/s 754 mmHg 60%
    14:00 0°C° 0 mm 4 m/s 754 mmHg 63%
    15:00 +1°C° 0 mm 3 m/s 754 mmHg 66%
    16:00 0°C° 0 mm 3 m/s 753 mmHg 68%
    17:00 0°C° 0 mm 3 m/s 753 mmHg 68%
    18:00 0°C° 0 mm 3 m/s 753 mmHg 67%
    19:00 -1°C° 0 mm 3 m/s 753 mmHg 67%
    20:00 -1°C° 0 mm 3 m/s 753 mmHg 68%
    21:00 -1°C° 0 mm 3 m/s 753 mmHg 70%
    22:00 -1°C° 0 mm 3 m/s 753 mmHg 71%
    23:00 -1°C° 0 mm 3 m/s 752 mmHg 72%

    12 Decembrie, Joi

    Timp Temperatura Precipitaţii Vânt Presiune Umiditate
    00:00 -1°C° 0 mm 3 m/s 752 mmHg 74%
    01:00 -1°C° 0 mm 3 m/s 752 mmHg 75%
    02:00 -1°C° 0 mm 2 m/s 751 mmHg 74%
    03:00 -1°C° 0 mm 2 m/s 751 mmHg 74%
    04:00 -1°C° 0 mm 2 m/s 750 mmHg 74%
    05:00 +1°C° 0 mm 2 m/s 750 mmHg 75%
    06:00 +1°C° 0 mm 2 m/s 750 mmHg 76%
    07:00 +1°C° 0 mm 2 m/s 750 mmHg 77%
    08:00 +1°C° 0.1 mm 2 m/s 750 mmHg 79%
    09:00 0°C° 0.1 mm 3 m/s 750 mmHg 81%
    10:00 0°C° 0.1 mm 3 m/s 750 mmHg 83%
    11:00 0°C° 0.3 mm 3 m/s 750 mmHg 87%
    12:00 0°C° 0.3 mm 3 m/s 750 mmHg 92%
    13:00 0°C° 0.3 mm 3 m/s 749 mmHg 96%
    14:00 +1°C° 0.2 mm 3 m/s 749 mmHg 96%
    15:00 +1°C° 0.2 mm 3 m/s 749 mmHg 95%
    16:00 +2°C° 0.2 mm 2 m/s 749 mmHg 95%
    17:00 +1°C° 0 mm 3 m/s 749 mmHg 93%
    18:00 +1°C° 0 mm 3 m/s 749 mmHg 92%
    19:00 0°C° 0 mm 3 m/s 749 mmHg 90%
    20:00 0°C° 0 mm 4 m/s 749 mmHg 90%
    21:00 0°C° 0 mm 4 m/s 749 mmHg 90%
    22:00 0°C° 0 mm 4 m/s 749 mmHg 90%
    23:00 0°C° 0 mm 4 m/s 749 mmHg 91%
    Arată mai mult